Time,TemperatureF,DewpointF,PressureIn,WindDirection,WindDirectionDegrees,WindSpeedMPH,WindSpeedGustMPH,Humidity,HourlyPrecipIn,Conditions,Clouds,dailyrainin,SoftwareType,DateUTC
2013-11-14 00:22:00,28.0,22.0,30.20,WSW,242,3.0,8.0,77,0.00,,,0.00,,2013-11-14 06:22:00,
2013-11-14 00:42:00,28.0,22.0,30.20,South,172,0.0,2.0,77,0.00,,,0.00,,2013-11-14 06:42:00,
2013-11-14 00:52:00,28.0,22.0,30.19,SE,140,1.0,3.0,78,0.00,,,0.00,,2013-11-14 06:52:00,
2013-11-14 01:11:00,28.0,22.0,30.18,SSW,192,1.0,5.0,78,0.00,,,0.00,,2013-11-14 07:11:00,
2013-11-14 01:22:00,28.0,21.0,30.17,SE,146,1.0,8.0,76,0.00,,,0.00,,2013-11-14 07:22:00,
2013-11-14 01:42:00,28.0,21.0,30.18,SSW,212,3.0,5.0,76,0.00,,,0.00,,2013-11-14 07:42:00,
2013-11-14 01:53:00,29.0,22.0,30.17,SSW,194,3.0,7.0,74,0.00,,,0.00,,2013-11-14 07:53:00,
2013-11-14 02:12:00,29.0,21.0,30.17,SSW,209,4.0,7.0,73,0.00,,,0.00,,2013-11-14 08:12:00,
2013-11-14 02:21:00,29.0,21.0,30.16,SSW,194,4.0,9.0,72,0.00,,,0.00,,2013-11-14 08:21:00,
2013-11-14 02:42:00,30.0,22.0,30.16,SW,219,4.0,10.0,71,0.00,,,0.00,,2013-11-14 08:42:00,
2013-11-14 02:53:00,30.0,21.0,30.16,SSW,213,4.0,9.0,70,0.00,,,0.00,,2013-11-14 08:53:00,
2013-11-14 03:11:00,30.0,21.0,30.15,SW,219,3.0,9.0,69,0.00,,,0.00,,2013-11-14 09:11:00,
2013-11-14 03:22:00,30.0,21.0,30.14,South,188,3.0,6.0,70,0.00,,,0.00,,2013-11-14 09:22:00,
2013-11-14 03:43:00,30.0,21.0,30.14,SW,232,2.0,7.0,70,0.00,,,0.00,,2013-11-14 09:43:00,
2013-11-14 03:52:00,30.0,21.0,30.13,SSE,166,3.0,9.0,70,0.00,,,0.00,,2013-11-14 09:52:00,
2013-11-14 04:12:00,30.0,21.0,30.13,South,170,3.0,8.0,70,0.00,,,0.00,,2013-11-14 10:12:00,
2013-11-14 04:23:00,30.0,21.0,30.12,SW,215,4.0,7.0,70,0.00,,,0.00,,2013-11-14 10:23:00,
2013-11-14 04:42:00,29.0,21.0,30.12,SE,143,2.0,6.0,72,0.00,,,0.00,,2013-11-14 10:42:00,
2013-11-14 04:52:00,29.0,21.0,30.12,South,174,2.0,6.0,72,0.00,,,0.00,,2013-11-14 10:52:00,
2013-11-14 05:11:00,29.0,21.0,30.11,South,175,2.0,5.0,72,0.00,,,0.00,,2013-11-14 11:11:00,
2013-11-14 05:22:00,30.0,22.0,30.11,WSW,255,2.0,5.0,71,0.00,,,0.00,,2013-11-14 11:22:00,
2013-11-14 05:42:00,29.0,21.0,30.11,SW,217,3.0,7.0,72,0.00,,,0.00,,2013-11-14 11:42:00,
2013-11-14 05:52:00,29.0,21.0,30.10,SW,221,2.0,7.0,73,0.00,,,0.00,,2013-11-14 11:52:00,
2013-11-14 06:12:00,28.0,21.0,30.11,SW,218,1.0,5.0,75,0.00,,,0.00,,2013-11-14 12:12:00,
2013-11-14 06:21:00,28.0,21.0,30.10,WSW,243,2.0,6.0,76,0.00,,,0.00,,2013-11-14 12:21:00,
2013-11-14 07:42:00,28.0,21.0,30.10,SSW,197,0.0,3.0,76,0.00,,,0.00,,2013-11-14 13:42:00,
2013-11-14 07:52:00,29.0,22.0,30.11,SW,221,0.0,5.0,76,0.00,,,0.00,,2013-11-14 13:52:00,
2013-11-14 08:11:00,30.0,23.0,30.10,SW,236,2.0,5.0,75,0.00,,,0.00,,2013-11-14 14:11:00,
2013-11-14 08:22:00,31.0,24.0,30.11,SSE,164,2.0,6.0,74,0.00,,,0.00,,2013-11-14 14:22:00,
2013-11-14 08:42:00,32.0,24.0,30.10,SW,221,3.0,7.0,72,0.00,,,0.00,,2013-11-14 14:42:00,
2013-11-14 08:52:00,33.0,24.0,30.09,SW,223,4.0,8.0,69,0.00,,,0.00,,2013-11-14 14:52:00,
2013-11-14 09:11:00,34.0,24.0,30.09,SSW,202,5.0,9.0,67,0.00,,,0.00,,2013-11-14 15:11:00,
2013-11-14 09:22:00,36.0,24.0,30.09,WSW,250,6.0,14.0,62,0.00,,,0.00,,2013-11-14 15:22:00,
2013-11-14 09:43:00,38.0,26.0,30.09,SSW,209,7.0,13.0,61,0.00,,,0.00,,2013-11-14 15:43:00,
2013-11-14 09:53:00,38.0,25.0,30.09,SSW,204,7.0,15.0,58,0.00,,,0.00,,2013-11-14 15:53:00,
2013-11-14 10:13:00,39.0,25.0,30.08,SSE,165,4.0,14.0,58,0.00,,,0.00,,2013-11-14 16:13:00,
2013-11-14 10:23:00,40.0,26.0,30.08,SSE,164,5.0,14.0,56,0.00,,,0.00,,2013-11-14 16:23:00,
2013-11-14 10:42:00,41.0,26.0,30.07,SSE,165,6.0,14.0,55,0.00,,,0.00,,2013-11-14 16:42:00,
2013-11-14 10:52:00,42.0,27.0,30.07,SSW,211,6.0,14.0,54,0.00,,,0.00,,2013-11-14 16:52:00,
2013-11-14 11:13:00,44.0,28.0,30.06,SSW,201,6.0,15.0,52,0.00,,,0.00,,2013-11-14 17:13:00,
2013-11-14 11:22:00,44.0,27.0,30.06,WSW,246,6.0,14.0,50,0.00,,,0.00,,2013-11-14 17:22:00,
2013-11-14 11:42:00,45.0,27.0,30.05,WSW,240,7.0,14.0,50,0.00,,,0.00,,2013-11-14 17:42:00,
2013-11-14 11:52:00,45.0,27.0,30.04,SW,219,6.0,13.0,49,0.00,,,0.00,,2013-11-14 17:52:00,
2013-11-14 12:12:00,46.0,27.0,30.03,SW,223,7.0,16.0,48,0.00,,,0.00,,2013-11-14 18:12:00,
2013-11-14 12:21:00,46.0,28.0,30.02,SW,234,7.0,17.0,49,0.00,,,0.00,,2013-11-14 18:21:00,
2013-11-14 12:42:00,47.0,28.0,30.02,SSW,213,7.0,15.0,48,0.00,,,0.00,,2013-11-14 18:42:00,
2013-11-14 12:52:00,47.0,28.0,30.01,SW,227,6.0,13.0,48,0.00,,,0.00,,2013-11-14 18:52:00,
2013-11-14 13:11:00,47.0,28.0,30.01,WSW,244,7.0,16.0,48,0.00,,,0.00,,2013-11-14 19:11:00,
2013-11-14 13:21:00,47.0,28.0,30.01,West,271,6.0,14.0,47,0.00,,,0.00,,2013-11-14 19:21:00,
2013-11-14 13:42:00,47.0,28.0,30.00,SW,225,6.0,18.0,47,0.00,,,0.00,,2013-11-14 19:42:00,
2013-11-14 13:52:00,48.0,29.0,29.99,WSW,246,7.0,16.0,47,0.00,,,0.00,,2013-11-14 19:52:00,
2013-11-14 14:12:00,48.0,28.0,29.98,SW,219,7.0,15.0,46,0.00,,,0.00,,2013-11-14 20:12:00,
2013-11-14 14:22:00,49.0,29.0,29.97,WSW,242,7.0,13.0,46,0.00,,,0.00,,2013-11-14 20:22:00,
2013-11-14 14:42:00,49.0,29.0,29.96,South,189,8.0,13.0,46,0.00,,,0.00,,2013-11-14 20:42:00,
2013-11-14 14:52:00,49.0,29.0,29.96,SSW,213,6.0,14.0,46,0.00,,,0.00,,2013-11-14 20:52:00,
2013-11-14 15:11:00,49.0,30.0,29.96,WSW,241,4.0,10.0,48,0.00,,,0.00,,2013-11-14 21:11:00,
2013-11-14 15:22:00,48.0,29.0,29.96,SE,145,4.0,10.0,48,0.00,,,0.00,,2013-11-14 21:22:00,
2013-11-14 15:43:00,48.0,30.0,29.96,South,184,5.0,14.0,49,0.00,,,0.00,,2013-11-14 21:43:00,
2013-11-14 15:53:00,48.0,30.0,29.96,South,190,4.0,9.0,49,0.00,,,0.00,,2013-11-14 21:53:00,
2013-11-14 16:13:00,47.0,29.0,29.95,SSW,196,5.0,9.0,49,0.00,,,0.00,,2013-11-14 22:13:00,
2013-11-14 16:23:00,47.0,29.0,29.95,SSE,159,4.0,11.0,50,0.00,,,0.00,,2013-11-14 22:23:00,
2013-11-14 16:43:00,46.0,29.0,29.96,SSW,200,3.0,8.0,51,0.00,,,0.00,,2013-11-14 22:43:00,
2013-11-14 16:53:00,46.0,29.0,29.97,SW,217,4.0,8.0,52,0.00,,,0.00,,2013-11-14 22:53:00,
2013-11-14 17:12:00,45.0,29.0,29.97,WSW,245,3.0,7.0,54,0.00,,,0.00,,2013-11-14 23:12:00,
2013-11-14 17:22:00,44.0,29.0,29.98,SSW,209,0.0,3.0,55,0.00,,,0.00,,2013-11-14 23:22:00,
2013-11-14 17:43:00,42.0,28.0,29.98,SW,218,1.0,4.0,58,0.00,,,0.00,,2013-11-14 23:43:00,
2013-11-14 17:52:00,42.0,29.0,29.98,SSW,211,0.0,3.0,59,0.00,,,0.00,,2013-11-14 23:52:00,
2013-11-14 18:11:00,41.0,28.0,29.98,SSW,211,0.0,1.0,60,0.00,,,0.00,,2013-11-15 00:11:00,
2013-11-14 18:21:00,40.0,28.0,29.98,WSW,247,1.0,3.0,61,0.00,,,0.00,,2013-11-15 00:21:00,
2013-11-14 18:42:00,40.0,28.0,29.98,WSW,247,0.0,3.0,61,0.00,,,0.00,,2013-11-15 00:42:00,
2013-11-14 18:52:00,40.0,28.0,29.98,WSW,246,0.0,2.0,61,0.00,,,0.00,,2013-11-15 00:52:00,
2013-11-14 19:12:00,39.0,27.0,29.99,SSW,207,1.0,3.0,61,0.00,,,0.00,,2013-11-15 01:12:00,
2013-11-14 19:22:00,39.0,27.0,29.99,West,263,0.0,4.0,62,0.00,,,0.00,,2013-11-15 01:22:00,
2013-11-14 19:42:00,39.0,27.0,29.99,West,261,1.0,3.0,61,0.00,,,0.00,,2013-11-15 01:42:00,
2013-11-14 19:52:00,39.0,27.0,29.99,WSW,258,1.0,4.0,62,0.00,,,0.00,,2013-11-15 01:52:00,
2013-11-14 20:12:00,39.0,27.0,29.99,WSW,249,0.0,4.0,62,0.00,,,0.00,,2013-11-15 02:12:00,
2013-11-14 20:22:00,39.0,27.0,29.99,SSE,157,1.0,4.0,62,0.00,,,0.00,,2013-11-15 02:22:00,
2013-11-14 20:42:00,39.0,27.0,29.98,SW,216,2.0,4.0,62,0.00,,,0.00,,2013-11-15 02:42:00,
2013-11-14 20:52:00,39.0,27.0,29.98,South,191,0.0,4.0,62,0.00,,,0.00,,2013-11-15 02:52:00,
2013-11-14 21:12:00,39.0,27.0,29.98,SSW,194,0.0,3.0,62,0.00,,,0.00,,2013-11-15 03:12:00,
2013-11-14 21:22:00,39.0,27.0,29.98,SSW,202,0.0,5.0,62,0.00,,,0.00,,2013-11-15 03:22:00,
2013-11-14 21:44:00,39.0,27.0,29.98,East,85,1.0,6.0,62,0.00,,,0.00,,2013-11-15 03:44:00,
2013-11-14 21:54:00,39.0,27.0,29.98,SSE,156,1.0,7.0,61,0.00,,,0.00,,2013-11-15 03:54:00,
2013-11-14 22:14:00,38.0,26.0,29.98,SSW,213,3.0,7.0,62,0.00,,,0.00,,2013-11-15 04:14:00,
2013-11-14 22:24:00,37.0,26.0,29.98,SW,214,2.0,4.0,64,0.00,,,0.00,,2013-11-15 04:24:00,
2013-11-14 22:42:00,37.0,26.0,29.98,SW,236,4.0,7.0,65,0.00,,,0.00,,2013-11-15 04:42:00,
2013-11-14 22:53:00,37.0,26.0,29.97,SW,217,2.0,7.0,64,0.00,,,0.00,,2013-11-15 04:53:00,
2013-11-14 23:13:00,37.0,26.0,29.98,South,178,2.0,6.0,65,0.00,,,0.00,,2013-11-15 05:13:00,
2013-11-14 23:22:00,37.0,27.0,29.98,South,184,3.0,6.0,67,0.00,,,0.00,,2013-11-15 05:22:00,
2013-11-14 23:43:00,36.0,26.0,29.98,WSW,241,1.0,6.0,68,0.00,,,0.00,,2013-11-15 05:43:00,
2013-11-14 23:53:00,36.0,27.0,29.98,SW,234,1.0,4.0,69,0.00,,,0.00,,2013-11-15 05:53:00,